Location: ??
(35.4627°N, 139.3695°E)
Time: 14:36:03
(UTC+00:00)

Cosmos 158 Rocket - Pass Details

Date: 25 November 2020
Orbit: 698 x 793 km, 74.0° (Epoch: 20 January)

Event Time Altitude Azimuth Distance (km) Brightness Sun altitude
Exits shadow 20:18:07 - 345° (NNW) 2,977 6.8 -14.2°
Reaches altitude 10° 20:20:09 10° 347° (NNW) 2,177 6.1 -13.9°
Maximum altitude 20:25:03 71° 72° (ENE) 754 4.1 -12.9°
Drops below altitude 10° 20:30:00 10° 156° (SSE) 2,208 7.0 -11.9°
Sets 20:32:22 0° 159° (SSE) 3,140 7.8 -11.5°
